This demonstration page uses our WeatherBlox Daily Observations layout. Learn more.

Left ArrowRight Arrow

Hourly Observations for August 9, 2022

Temp ( °F °C ) Dew Point ( °F °C ) Humidity (%) Winds ( mph kmh ) Pressure ( in mb ) Visibility ( mi km ) Precip ( " mm )
12:51 am 00:51 Clear 71 21.7 69 20.6 93 93 W 7 11 29.95 1014 10 16 0.00 0.00
1:51 am 01:51 Clear 71 21.7 68 20 90 90 Calm 29.93 1014 10 16 0.00 0.00
2:51 am 02:51 Clear 70 21.1 69 20.6 97 97 NNW 5 7 29.91 1013 10 16 0.00 0.00
3:51 am 03:51 Clear 70 21.1 69 20.6 97 97 Calm 29.91 1013 10 16 0.00 0.00
4:51 am 04:51 Mostly Cloudy 71 21.7 69 20.6 93 93 Calm 29.92 1013 10 16 0.00 0.00
5:51 am 05:51 Partly Cloudy 69 20.6 68 20 96 96 SE 5 7 29.95 1014 10 16 0.00 0.00
6:51 am 06:51 Mostly Sunny 71 21.7 68 20 90 90 E 7 11 29.96 1015 10 16 0.00 0.00
7:51 am 07:51 Sunny 75 23.9 68 20 79 79 ESE 8 13 29.97 1015 10 16 0.00 0.00
8:51 am 08:51 Sunny 79 26.1 68 20 69 69 ESE 6 9 29.97 1015 10 16 0.00 0.00
9:51 am 09:51 Sunny 82 27.8 66 18.9 58 58 E 6 9 29.97 1015 10 16 0.00 0.00
10:51 am 10:51 Sunny 84 28.9 67 19.4 57 57 VRB 6 9 29.96 1015 10 16 0.00 0.00
11:51 am 11:51 Sunny 86 30 65 18.3 50 50 VRB 5 7 29.93 1014 10 16 0.00 0.00
12:51 pm 12:51 Sunny 89 31.7 63 17.2 42 42 SW 3 6 29.90 1013 10 16 0.00 0.00
1:51 pm 13:51 Sunny 92 33.3 64 17.8 40 40 SE 7 11 29.85 1011 10 16 0.00 0.00
2:51 pm 14:51 Sunny 91 32.8 60 15.6 36 36 VRB 7 11 29.83 1010 10 16 0.00 0.00
3:51 pm 15:51 Sunny 91 32.8 61 16.1 37 37 SSE 5 7 29.82 1010 10 16 0.00 0.00
3:59 pm 15:59 Sunny with Thunderstorms 92 33.3 61 16.1 36 36 SE 3 6 29.71 1006 10 16 0.00 0.00
4:14 pm 16:14 Sunny with Nearby Thunderstorms 92 33.3 61 16.1 36 36 ENE 5 7 29.70 1006 10 16 0.00 0.00
4:43 pm 16:43 Sunny 91 32.8 61 16.1 37 37 Calm 29.71 1006 10 16 0.00 0.00
4:51 pm 16:51 Sunny 91 32.8 61 16.1 37 37 ESE 5 7 29.82 1010 10 16 0.00 0.00
5:51 pm 17:51 Sunny 90 32.2 62 16.7 40 40 N 6 9 29.81 1010 10 16 0.00 0.00
6:51 pm 18:51 Sunny 88 31.1 63 17.2 43 43 WNW 8 13 29.84 1011 10 16 0.00 0.00
7:51 pm 19:51 Mostly Clear 85 29.4 62 16.7 46 46 NNE 9 15 29.86 1011 10 16 0.00 0.00
8:13 pm 20:13 Mostly Cloudy with Nearby Thunderstorms 85 29.4 61 16.1 45 45 E 13 20 29.82 1010 10 16 0.00 0.00
8:27 pm 20:27 Mostly Cloudy with Thunderstorms 78 25.6 66 18.9 67 67 SSE 25 41 29.88 1012 10 16 0.00 0.00
8:51 pm 20:51 Cloudy with Thunderstorms 73 22.8 67 19.4 81 81 S 15 24 29.96 1015 10 16 0.00 0.00
9:20 pm 21:20 Partly Cloudy with Nearby Thunderstorms 73 22.8 67 19.4 81 81 WSW 9 15 29.99 1015 10 16 0.00 0.00
9:51 pm 21:51 Partly Cloudy 71 21.7 66 18.9 84 84 NNE 10 17 30.00 1016 10 16 0.00 0.00
10:51 pm 22:51 Partly Cloudy 73 22.8 67 19.4 81 81 E 13 20 29.99 1016 10 16 0.00 0.00
11:51 pm 23:51 Cloudy 75 23.9 67 19.4 76 76 SE 8 13 30.01 1016 10 16 0.00 0.00

Powered by AerisWeather